Regional Weather Roundup
Issued by NWS

Home | Current Version | Previous Version | Text Only | Print | Product List | Glossary Off
Versions: 1 2 3 4 5 6 7 8 9 10 11 12 13 14 15 16 17 18 19 20 21 22 23 24 25 26 27 28 29 30 31 32 33 34 35 36 37 38 39 40 41 42 43 44 45 46 47 48 49 50

000
ASUS43 KDTX 300610
RWRMI
MICHIGAN HOURLY REGIONAL WEATHER ROUNDUP
NATIONAL WEATHER SERVICE DETROIT/PONTIAC MI
200 AM EDT TUE MAY 30 2017

NOTE: "FAIR" INDICATES FEW OR NO CLOUDS BELOW 12,000 FEET WITH NO
SIGNIFICANT WEATHER AND/OR OBSTRUCTION TO VISIBILITY.

MIZ047>049-052>055-059>063-066>070-074>076-081>083-300700-
SOUTHEAST LOWER MICHIGAN

CITY           SKY/WX    TMP DP  RH WIND       PRES   REMARKS
ADRIAN         PTCLDY    57  53  86 W3        29.91S
6HR MIN TEMP:  56; 6HR MAX TEMP:  72; 6HR PCP:  0.20;

ALMA           CLEAR     53  47  81 SW5       29.85S
ANN ARBOR      PTCLDY    54  50  86 SW3       29.89S
BAD AXE        CLEAR     53  46  75 SW6       29.84S
6HR MIN TEMP:  52; 6HR MAX TEMP:  70;

CARO           CLEAR     50  45  83 SW3       29.84S
DETROIT CITY   MOCLDY    60  54  80 SW5       29.88S
6HR MIN TEMP:  60; 6HR MAX TEMP:  66;

DETROIT        CLOUDY    58  56  93 S5        29.89F
6HR MIN TEMP:  58; 6HR MAX TEMP:  71; 6HR PCP:  0.04;

FLINT          CLEAR     57  45  64 SW6       29.87R
6HR MIN TEMP:  57; 6HR MAX TEMP:  72;

GROSSE ILE     CLOUDY    60  54  79 SW3       29.88F
6HR MIN TEMP:  60; 6HR MAX TEMP:  71; 6HR PCP:  0.06;

HILLSDALE      CLEAR     52  45  76 CALM      29.90S
HOWELL         CLEAR     56  44  64 SW3       29.88S
6HR MIN TEMP:  56; 6HR MAX TEMP:  72;


CITY           SKY/WX    TMP DP  RH WIND       PRES   REMARKS
JACKSON        CLEAR     54  48  80 SW6       29.89S
6HR MIN TEMP:  53; 6HR MAX TEMP:  71;

LAMBERTVILLE   MOCLDY    57  54  88 CALM      29.90S
6HR MIN TEMP:  57; 6HR MAX TEMP:  71;

LANSING        CLEAR     57  45  64 SW5       29.88S
6HR MIN TEMP:  56; 6HR MAX TEMP:  72;

LAPEER         FAIR      55  46  71 SW6       29.87R
6HR MIN TEMP:  53; 6HR MAX TEMP:  73;

MASON          CLEAR     58  46  65 CALM      29.89S
MONROE         CLOUDY    59  52  79 CALM      29.88F
6HR MIN TEMP:  58; 6HR MAX TEMP:  72;

MT. CLEMENS    MOCLDY    60  53  78 SW3       29.86S
6HR MIN TEMP:  60; 6HR MAX TEMP:  70;

PONTIAC        CLEAR     58  47  66 W3        29.87S
6HR MIN TEMP:  57; 6HR MAX TEMP:  71;

PORT HOPE        N/A     56  48  74 S3        29.81S
6HR MIN TEMP:  56; 6HR MAX TEMP:  71;

PORT HURON     PTCLDY    55  50  82 CALM      29.87S
TRI CITIES     CLEAR     58  47  66 SW9       29.84S
6HR MIN TEMP:  57; 6HR MAX TEMP:  70;

MIDLAND        FAIR      56  45  66 CALM      29.83R
6HR MIN TEMP:  56; 6HR MAX TEMP:  70;

TROY           PTCLDY    62  48  60 SW3       29.89F
SAGINAW HB     CLEAR     57  43  58 SW7       29.84S
$$
MIZ043>046-050>051-056>058-064>065-071>073-077>080-300700-
SOUTHWEST LOWER MICHIGAN

CITY           SKY/WX    TMP DP  RH WIND       PRES   REMARKS
BATTLE CREEK   CLEAR     52  46  80 SW3       29.89S
6HR MIN TEMP:  52; 6HR MAX TEMP:  70;

BENTON HARBOR  CLEAR     50  46  86 SE3       29.89S
6HR MIN TEMP:  49; 6HR MAX TEMP:  67;

BIG RAPIDS     CLEAR     49  44  81 CALM      29.82S
6HR MIN TEMP:  49; 6HR MAX TEMP:  65;

COLDWATER      CLEAR     57  47  67 S5        29.90F
6HR MIN TEMP:  51; 6HR MAX TEMP:  71;

FREMONT        FAIR      53  46  78 W3        29.83S
HOLLAND        MOCLDY    54  48  80 SW6       29.87S
6HR MIN TEMP:  49; 6HR MAX TEMP:  67;

GRAND RAPIDS   PTCLDY    55  48  77 S6        29.85F
6HR MIN TEMP:  55; 6HR MAX TEMP:  69;

IONIA          FAIR      56  46  69 S6        29.86S
6HR MIN TEMP:  55; 6HR MAX TEMP:  70;

KALAMAZOO      CLEAR     54  45  71 SW5       29.89S
6HR MIN TEMP:  53; 6HR MAX TEMP:  70;

LUDINGTON      CLEAR     53  48  84 W8        29.81R
6HR MIN TEMP:  52; 6HR MAX TEMP:  59;

MARSHALL       CLEAR     55  45  70 CALM      29.89S
6HR MIN TEMP:  53; 6HR MAX TEMP:  70;

MOUNT PLEASANT CLEAR     55  44  68 SW5       29.82S
6HR MIN TEMP:  55; 6HR MAX TEMP:  68;

MUSKEGON       CLEAR     56  46  69 W10       29.84F
6HR MIN TEMP:  53; 6HR MAX TEMP:  64; 6HR PCP:  0.01;

SOUTH HAVEN    PTCLDY    56  50  81 S5        29.89S
$$
MIZ016>042-300700-
NORTHERN LOWER MICHIGAN

CITY           SKY/WX    TMP DP  RH WIND       PRES   REMARKS
ALPENA         PTCLDY    54  47  77 S5        29.76S
6HR MIN TEMP:  49; 6HR MAX TEMP:  66;

BEAVER ISLAND  PTCLDY    49  46  91 SW8       29.73S
6HR MIN TEMP:  49; 6HR MAX TEMP:  53;

BELLAIRE       MOCLDY    55  46  72 S5        29.76S
6HR MIN TEMP:  55; 6HR MAX TEMP:  63;

CADILLAC       CLEAR     50  47  88 SW7       29.80S
CHARLEVOIX     PTCLDY    55  46  74 SW8       29.77S
6HR MIN TEMP:  55; 6HR MAX TEMP:  62;

FRANKFORT      PTCLDY    53  46  76 W7G20     29.78S
GAYLORD        CLEAR     53  44  71 SW8       29.76S
6HR MIN TEMP:  53; 6HR MAX TEMP:  64;

GRAYLING       CLEAR     54  46  73 SW5       29.79S
HARBOR SPRINGS PTCLDY    53  48  82 W3        29.74S
HOUGHTON LAKE  CLEAR     55  46  71 SW8       29.80S
6HR MIN TEMP:  55; 6HR MAX TEMP:  65;

MANISTEE       CLEAR     54  47  77 W9        29.79S
OSCODA         CLEAR     50  44  80 SW3       29.78S
6HR MIN TEMP:  50; 6HR MAX TEMP:  70;

PELLSTON       PTCLDY    55  45  68 SW7       29.74R
6HR MIN TEMP:  53; 6HR MAX TEMP:  62;

ROGERS CITY    CLEAR     54  47  79 S7        29.75S
TRAVERSE CITY  CLEAR     55  47  74 SW5       29.76S
6HR MIN TEMP:  54; 6HR MAX TEMP:  65;

$$
MIZ007>008-015-300700-
EASTERN UPPER MICHIGAN

CITY           SKY/WX    TMP DP  RH WIND       PRES   REMARKS
KINROSS        CLOUDY    50  47  89 SW3       29.71S
6HR MIN TEMP:  50; 6HR MAX TEMP:  58;

MACKINAC ISLAN MOCLDY    51  47  86 SW10G17   29.72S
6HR MIN TEMP:  51; 6HR MAX TEMP:  54;

NEWBERRY       CLOUDY    50  49  97 SW6       29.69F
6HR MIN TEMP:  49; 6HR MAX TEMP:  53; 6HR PCP:  0.08;

S. S. MARIE    LGT RAIN  53  49  86 S3        29.69F
6HR MIN TEMP:  53; 6HR MAX TEMP:  59; 6HR PCP: TRACE;

MUNISING         N/A     55  53  93 SW6       29.69R
6HR MIN TEMP:  51; 6HR MAX TEMP:  55; 6HR PCP:  0.19;

$$
MIZ004>006-011>014-085-300700-
CENTRAL UPPER MICHIGAN

CITY           SKY/WX    TMP DP  RH WIND       PRES   REMARKS
MANISTIQUE     CLOUDY    52  49  89 W5        29.71S
6HR MIN TEMP:  50; 6HR MAX TEMP:  53; 6HR PCP:  0.02;

ESCANABA       MOCLDY    51  50  96 W5        29.73S
6HR MIN TEMP:  51; 6HR MAX TEMP:  58; 6HR PCP: TRACE;

SAWYER-GWINN   CLOUDY    53  47  81 W12       29.71S
6HR MIN TEMP:  53; 6HR MAX TEMP:  59;

$$
MIZ001>003-009>011-084-300700-
WESTERN UPPER MICHIGAN

CITY           SKY/WX    TMP DP  RH WIND       PRES   REMARKS
IRON MOUNTAIN  CLOUDY    53  49  86 W5        29.73S
6HR MIN TEMP:  53; 6HR MAX TEMP:  59; 6HR PCP:  0.01;

HOUGHTON       CLOUDY    50  43  77 W16       29.68S
6HR MIN TEMP:  50; 6HR MAX TEMP:  54; 6HR PCP:  0.01;

COPPER HARBOR    N/A     53  47  79 NW12G22   29.64R
6HR MIN TEMP:  53; 6HR MAX TEMP:  57;

IRONWOOD       CLOUDY    50  46  86 W5        29.76S
6HR MIN TEMP:  48; 6HR MAX TEMP:  54; 6HR PCP: TRACE;

$$

ABBREVIATIONS USED IN REMARKS
   TC - TEMPERATURE IN CELSIUS
  WCI - WIND CHILL INDEX
   HX - HEAT INDEX
  VSB - VISIBILITY




USA.gov is the U.S. government's official web portal to all federal, state and local government web resources and services.